Location: Ca�n Batista
(41.4099°N, 1.7752°E)
Time: 14:11:16
(UTC+00:00)

USA 234 - Pass Details

Date: 03 March 2021
Orbit: 1102 x 1105 km, 123.0° (Epoch: 18 April)

Event Time Altitude Azimuth Distance (km) Brightness Sun altitude
Exits shadow 19:39:58 17° 45° (NE) 2,491 4.8 -22.1°
Maximum altitude 19:45:16 80° 321° (NW) 1,122 3.3 -23.0°
Drops below altitude 10° 19:51:48 10° 235° (SW) 2,955 6.0 -24.2°
Sets 19:54:16 0° 234° (SW) 3,911 6.7 -24.7°
